SCP
0 0 0 0 0 0 0 0 0 0 0 0 0 0 0 0 0 0 0 0 0 0 0 0 0 0 0 0 0 0 0 0 0 0 0 0 0 0 0 0 0 0 0
0 0 0 0 0 0 0 0 0 0 0 0 0 0 0 0 0 0 0 0 0 0 0 0 0 0 0 0 0 0 0 0 0 0 0 0 0 0 0 0 0 0 0
0 0 0 0 0 0 0 0 0 0 0 0 0 0 0 0 0 0 0 0 0 0 0 0 0 0 0 0 0 0 0 0 0 0 0 0 0 0 0 0 0 0 0
0 0 0 0 0 0 0 0 0 0 0 0 0 0 0 0 0 0 0 0 0 0 0 0 0 0 0 0 0 0 0 0 0 0 0 0 0 0 0 0 0 0 0
0 0 0 0 0 0 0 0 0 0 0 0 0 0 0 0 0 0 0 0 0 0 0 0 0 0 0 0 0 0 0 0 0 0 0 0 0 0 0 0 0 0 0
0 0 0 0 0 0 0 0 0 0 0 0 0 0 0 0 0 0 0 0 0 0 0 0 0 0 0 0 0 0 0 0 0 0 0 0 0 0 0 0 0 0 0
0 0 0 0 0 0 0 0 0 0 0 0 0 0 0 0 0 0 0 0 0 0 0 0 0 0 0 0 0 0 0 0 0 0 0 0 0 0 0 0 0 0 0
0 0 0 0 0 0 0 0 0 0 0 0 0 0 0 0 0 0 0 0 0 0 0 0 0 0 0 0 0 0 0 0 0 0 0 0 0 0 0 0 0 0 0
0 0 0 0 0 0 0 0 0 0 0 0 0 0 0 0 0 0 0 0 0 0 0 0 0 0 0 0 0 0 0 0 0 0 0 0 0 0 0 0 0 0 0
0 0 0 0 0 0 0 0 0 0 0 0 0 0 0 0 0 0 0 0 0 0 0 0 0 0 0 0 0 0 0 0 0 0 0 0 0 0 0 0 0 0 0
0 0 0 0 0 0 0 0 0 0 0 0 0 0 0 0 0 0 0 0 0 0 0 0 0 0 0 0 0 0 0 0 0 0 0 0 0 0 0 0 0 0 0
0 0 0 0 0 0 0 0 0 0 0 0 0 0 0 0 0 0 0 0 0 0 0 0 0 0 0 0 0 0 0 0 0 0 0 0 0 0 0 0 0 0 0
0 0 0 0 0 0 0 0 0 0 0 0 0 0 0 0 0 0 0 0 0 0 0 0 0 0 0 0 0 0 0 0 0 0 0 0 0 0 0 0 0 0 0
0 0 0 0 0 0 0 0 0 0 0 0 0 0 0 0 0 0 0 0 0 0 0 0 0 0 0 0 0 0 0 0 0 0 0 0 0 0 0 0 0 0 0
0 0 0 0 0 0 0 0 0 0 0 0 0 0 0 0 0 0 0 0 0 0 0 0 0 0 0 0 0 0 0 0 0 0 0 0 0 0 0 0 0 0 0
0 0 0 0 0 0 0 0 0 0 0 0 0 0 0 0 0 0 0 0 0 0 0 0 0 0 0 0 0 0 0 0 0 0 0 0 0 0 0 0 0 0 0
0 0 0 0 0 0 0 0 0 0 0 0 0 0 0 0 0 0 0 0 0 0 0 0 0 0 0 0 0 0 0 0 0 0 0 0 0 0 0 0 0 0 0
0 0 0 0 0 0 0 0 0 0 0 0 0 0 0 0 0 0 0 0 0 0 0 0 0 0 0 0 0 0 0 0 0 0 0 0 0 0 0 0 0 0 0
0 0 0 0 0 0 0 0 0 0 0 0 0 0 0 0 0 0 0 0 0 0 0 0 0 0 0 0 0 0 0 0 0 0 0 0 0 0 0 0 0 0 0
0 0 0 0 0 0 0 0 0 0 0 0 0 0 0 0 0 0 0 0 0 0 0 0 0 0 0 0 0 0 0 0 0 0 0 0 0 0 0 0 0 0 0
0 0 0 0 0 0 0 0 0 0 0 0 0 0 0 0 0 0 0 0 0 0 0 0 0 0 0 0 0 0 0 0 0 0 0 0 0 0 0 0 0 0 0
0 0 0 0 0 0 0 0 0 0 0 0 0 0 0 0 0 0 0 0 0 0 0 0 0 0 0 0 0 0 0 0 0 0 0 0 0 0 0 0 0 0 0
0 0 0 0 0 0 0 0 0 0 0 0 0 0 0 0 0 0 0 0 0 0 0 0 0 0 0 0 0 0 0 0 0 0 0 0 0 0 0 0 0 0 0
0 0 0 0 0 0 0 0 0 0 0 0 0 0 0 0 0 0 0 0 0 0 0 0 0 0 0 0 0 0 0 0 0 0 0 0 0 0 0 0 0 0 0
0 0 0 0 0 0 0 0 0 0 0 0 0 0 0 0 0 0 0 0 0 0 0 0 0 0 0 0 0 0 0 0 0 0 0 0 0 0 0 0 0 0 0
0 0 0 0 0 0 0 0 0 0 0 0 0 0 0 0 0 0 0 0 0 0 0 0 0 0 0 0 0 0 0 0 0 0 0 0 0 0 0 0 0 0 0
Wind_Speed
4 3 2 2 2 2 2 2 2 2 2 2 3 3 3 3 3 3 3 3 2 2 2 1 2 2 2 1 2 2 2 2 1 1 0 1 2 2 2 2 3 3 4
3 3 2 2 2 2 2 2 1 1 2 2 3 3 3 3 3 3 3 3 3 3 2 2 2 1 1 2 1 1 1 1 2 2 1 2 2 3 2 3 2 2 2
3 3 3 2 2 2 2 2 1 2 2 2 2 3 3 3 3 3 3 2 3 3 3 2 2 2 1 1 1 1 1 1 1 2 2 1 1 2 2 2 2 1 2
3 3 3 2 2 2 2 1 1 2 2 2 3 3 3 3 3 3 2 2 2 2 2 2 3 3 2 2 1 1 1 1 2 2 2 2 2 2 2 2 2 2 2
3 3 3 2 2 2 1 1 1 2 2 2 2 2 3 3 4 5 3 2 2 2 2 2 3 3 4 3 2 1 1 2 1 2 2 2 2 2 2 3 2 2 2
3 3 3 2 2 1 1 1 1 1 2 2 2 2 3 4 5 6 6 2 2 2 2 2 1 1 1 1 1 1 2 2 1 2 2 2 2 2 2 3 2 2 2
3 3 3 2 2 1 1 1 2 2 2 2 2 2 3 4 4 5 6 4 2 2 2 2 2 3 1 1 2 3 2 1 2 3 2 1 2 2 3 3 2 3 2
3 3 3 2 2 1 1 2 2 2 2 2 2 2 2 3 3 4 6 3 1 1 1 2 2 3 3 3 2 1 1 2 2 3 2 3 2 3 3 4 3 3 4
3 3 3 2 2 1 2 2 2 1 2 2 2 2 2 3 3 4 7 3 1 1 2 3 3 2 4 3 2 1 0 1 3 3 3 3 3 4 4 4 3 4 3
3 3 3 2 2 1 2 1 1 1 1 1 2 2 2 3 4 4 6 3 2 2 1 1 3 3 3 4 3 2 1 1 1 2 3 5 6 5 6 5 4 4 3
3 4 3 2 2 2 1 1 1 1 1 1 1 1 1 2 2 3 5 4 4 3 2 2 3 3 2 3 5 3 3 4 4 4 3 3 4 4 5 5 4 4 4
3 4 3 2 1 2 1 1 1 1 1 1 0 1 0 0 1 2 2 4 6 4 3 3 3 2 4 5 5 2 4 6 5 3 3 3 2 2 2 3 4 5 5
4 3 3 2 1 1 0 0 0 1 1 1 0 1 0 0 1 3 3 3 4 4 4 4 4 5 6 6 5 5 6 5 4 3 3 3 2 2 2 3 4 5 6
3 3 2 2 2 1 1 1 1 1 1 2 1 2 2 1 1 1 1 2 4 4 4 3 6 8 7 5 4 6 5 4 4 4 3 3 3 3 4 4 4 4 5
3 3 3 2 2 1 1 1 2 2 3 4 4 4 4 3 4 5 6 5 5 5 7 5 4 4 4 3 3 3 4 4 4 4 4 4 4 4 4 4 4 5 6
4 3 2 2 1 1 1 1 1 2 2 5 6 7 4 3 4 6 6 7 7 6 6 6 5 4 5 4 4 3 4 4 4 4 4 5 5 5 5 5 5 6 6
3 2 2 1 1 1 1 1 1 3 6 8 8 8 9 7 7 8 8 8 9 6 6 6 5 5 5 5 5 5 5 4 4 5 5 5 6 6 6 6 6 6 6
4 3 3 2 2 2 2 2 2 3 2 2 6 9 9 9 9 9 8 7 7 7 6 6 5 5 5 5 5 5 5 5 5 5 6 6 6 7 7 7 7 7 7
4 2 2 2 2 2 2 3 3 3 3 3 3 4 7 8 10 9 7 7 7 6 5 5 5 5 5 5 5 5 5 5 6 6 6 7 7 8 8 8 8 8 9
4 3 4 4 3 3 3 3 3 4 4 4 4 4 2 4 5 4 5 6 6 6 6 6 6 6 6 6 6 6 6 6 6 7 7 7 7 8 9 9 9 9 9
4 4 6 6 4 3 3 4 4 4 5 5 5 3 3 6 6 6 6 6 6 6 6 6 6 6 6 6 6 6 7 7 7 7 7 7 7 7 8 8 9 10 10
4 4 4 4 4 4 4 5 5 5 5 7 6 3 5 7 6 6 6 6 6 6 6 6 7 6 6 6 6 7 7 7 7 7 7 8 8 8 8 9 9 9 10
5 5 5 5 5 4 6 6 5 6 6 6 6 6 5 5 6 7 7 6 6 6 6 6 7 7 6 6 6 6 7 7 7 7 8 8 9 8 8 9 11 12 11
5 5 6 5 5 5 6 6 6 6 6 6 6 6 6 6 7 7 7 7 7 7 7 6 7 8 9 7 6 6 6 6 8 8 10 10 10 9 9 10 11 13 12
5 5 5 5 5 5 6 6 6 6 6 6 6 6 6 6 6 7 6 6 8 8 8 8 6 7 9 10 9 7 4 4 5 7 9 9 11 12 12 13 12 13 13
5 5 5 5 5 5 6 6 6 6 6 6 6 6 7 7 7 7 6 6 7 7 7 7 8 9 10 9 8 6 4 4 5 6 8 9 11 12 13 12 15 14 14
Wind_Direction
116 108 103 93 90 99 80 58 35 13 2 3 2 355 354 357 0 351 358 3 353 348 338 343 336 320 299 266 249 252 255 257 221 147 151 149 194 223 194 215 199 206 152
122 119 113 107 102 87 77 62 43 14 354 5 355 350 354 2 358 346 355 7 357 347 342 339 337 330 318 301 277 248 245 268 227 185 188 188 202 210 212 232 219 215 178
124 123 113 111 98 78 62 50 31 18 3 359 356 354 351 353 356 355 359 2 355 355 352 350 340 332 315 319 285 258 223 220 230 205 189 186 200 196 215 220 211 224 228
133 122 113 102 96 83 67 58 34 20 9 12 358 351 348 350 352 349 341 356 359 5 10 360 352 339 332 312 276 255 239 230 215 210 186 174 172 187 226 217 204 206 238
140 127 116 109 106 93 73 49 31 16 9 9 357 357 359 359 9 352 331 342 354 4 14 6 21 16 360 332 321 314 247 239 213 199 183 178 176 192 220 229 231 212 203
140 131 120 120 109 101 93 76 50 34 10 353 355 6 11 23 22 352 327 330 346 357 360 359 57 147 106 195 302 325 308 261 242 222 202 201 198 216 230 238 238 238 225
137 129 121 119 108 103 107 89 63 43 22 11 11 19 28 41 17 349 333 324 348 359 354 342 356 45 334 43 117 187 194 221 246 261 243 255 242 238 244 242 253 277 293
135 125 121 117 107 104 90 68 46 30 18 1 11 17 27 46 18 346 328 299 347 8 0 351 357 10 30 1 344 28 115 149 205 233 256 263 276 276 255 254 255 248 241
141 135 124 115 102 101 73 54 34 17 358 340 18 10 15 41 21 347 323 313 30 18 21 21 360 5 43 345 305 327 37 144 168 201 262 274 287 282 276 258 247 249 257
135 125 119 114 100 80 68 49 33 6 348 337 16 6 10 21 27 355 330 315 357 348 27 64 72 28 19 336 295 284 277 288 257 206 219 224 228 218 220 246 268 276 280
127 127 119 112 102 74 60 42 356 337 3 343 7 1 11 10 39 15 343 321 331 338 348 3 56 74 355 318 294 283 297 287 257 240 232 223 221 218 216 225 242 261 279
129 130 127 123 110 89 57 25 358 322 223 221 179 266 223 103 29 40 339 316 317 319 327 348 30 14 315 297 284 287 283 270 252 245 242 238 236 236 228 236 243 256 266
134 132 134 133 135 129 202 283 259 253 278 291 285 286 287 50 146 192 240 270 281 292 323 345 317 292 281 261 232 248 254 248 255 260 258 258 260 261 255 232 229 234 243
141 145 155 160 164 145 253 274 314 323 325 324 319 322 340 328 339 335 286 237 233 247 270 257 242 250 252 264 250 231 235 253 267 268 272 271 264 246 245 253 255 249 257
154 165 178 174 152 193 236 330 315 352 346 311 325 323 321 328 21 1 324 323 330 344 324 291 279 274 265 251 244 242 240 234 236 248 262 268 267 263 258 254 259 265 266
170 176 185 173 163 214 223 188 187 258 239 246 261 283 303 308 310 305 299 291 289 296 290 277 283 285 284 288 283 263 251 251 253 257 261 265 269 269 263 258 255 257 265
186 192 216 203 199 225 246 261 247 224 225 235 242 246 256 278 282 281 281 282 272 254 256 267 276 282 284 283 280 274 266 260 263 260 260 261 263 265 265 265 264 263 266
201 193 227 229 242 254 264 267 271 283 277 257 226 226 238 252 261 265 269 274 257 229 253 272 278 279 278 278 279 279 277 269 257 260 264 266 266 268 269 269 268 267 271
212 216 240 257 255 259 268 272 275 280 285 288 282 225 219 237 241 246 243 258 280 285 282 282 282 283 283 280 277 279 279 278 278 275 271 270 270 270 271 271 271 266 265
213 215 246 257 254 255 261 275 285 288 288 292 291 294 269 265 271 251 235 258 275 284 288 287 285 282 280 278 275 273 271 270 270 267 266 265 267 269 270 270 270 270 269
221 200 212 242 251 263 272 278 284 288 292 291 291 309 308 288 286 290 288 284 285 288 290 291 288 282 276 270 272 274 273 272 273 273 275 274 274 274 274 273 272 272 273
232 233 237 252 261 265 280 282 281 280 282 285 286 264 218 262 283 286 288 291 293 292 290 289 287 286 288 289 288 284 281 279 279 279 279 280 278 276 275 275 276 279 278
233 237 244 251 259 255 258 265 272 277 281 285 290 295 282 284 290 292 294 294 292 291 288 283 282 285 289 290 287 285 287 291 293 295 291 287 284 281 279 276 276 278 277
234 242 249 255 259 261 264 269 273 276 280 285 291 294 294 291 290 293 295 293 292 289 288 286 285 291 293 290 285 280 284 295 297 293 292 289 286 283 283 280 279 279 278
234 241 251 258 264 268 270 271 274 278 281 285 288 292 294 295 296 296 297 297 298 295 295 292 287 286 289 289 290 297 318 318 302 300 292 285 282 281 281 280 279 280 280
239 244 251 255 262 270 273 274 278 283 286 288 291 295 297 298 299 303 303 303 303 302 299 296 295 295 295 291 297 303 293 286 282 281 284 282 281 280 281 281 282 281 280